| time (UTC) | temp F | wind direction | speed knots | gust knots | rain 1hr in | rain 24hr in | rain mn in | humidity % | barometer mb |
| 20260506070530 | 66 | 0 | 0.0 | 0.0 | 0.00 | 0.00 | 0.00 | 60 | 1009.4 |
| 20260506062029 | 67 | 0 | 0.0 | 0.0 | 0.00 | 0.00 | 0.00 | 59 | 1009.0 |
| 20260506061541 | 67 | 0 | 0.0 | 0.0 | 0.00 | 0.00 | 0.00 | 60 | 1009.2 |
| 20260506061030 | 68 | 0 | 0.0 | 0.0 | 0.00 | 0.00 | 0.00 | 59 | 1009.1 |
| 20260506060530 | 68 | 0 | 0.0 | 0.0 | 0.00 | 0.00 | 0.00 | 59 | 1009.0 |
| 20260506051030 | 70 | 0 | 0.0 | 0.0 | 0.00 | 0.00 | 0.00 | 58 | 1009.0 |
| 20260506050530 | 70 | 0 | 0.0 | 0.0 | 0.00 | 0.00 | 0.00 | 58 | 1009.0 |
| 20260506045031 | 70 | 0 | 0.0 | 0.0 | 0.00 | 0.00 | 0.00 | 57 | 1008.9 |
| 20260506044551 | 71 | 0 | 0.0 | 0.0 | 0.00 | 0.00 | 0.00 | 56 | 1008.8 |
| 20260506044029 | 71 | 0 | 0.0 | 0.0 | 0.00 | 0.00 | 0.00 | 56 | 1008.8 |
| 20260506043533 | 71 | 0 | 0.0 | 0.0 | 0.00 | 0.00 | 0.00 | 56 | 1008.8 |
| 20260506043040 | 71 | 0 | 0.0 | 0.0 | 0.00 | 0.00 | 0.00 | 55 | 1008.7 |
| 20260506042529 | 71 | 0 | 0.0 | 0.0 | 0.00 | 0.00 | 0.00 | 55 | 1008.8 |
| 20260506042124 | 72 | 0 | 0.0 | 0.0 | 0.00 | 0.00 | 0.00 | 56 | 1008.8 |
| 20260506041550 | 72 | 0 | 0.0 | 0.0 | 0.00 | 0.00 | 0.00 | 56 | 1008.7 |
| 20260506041030 | 72 | 0 | 0.0 | 0.0 | 0.00 | 0.00 | 0.00 | 56 | 1008.6 |
| 20260506040529 | 72 | 0 | 0.0 | 0.0 | 0.00 | 0.00 | 0.00 | 56 | 1008.5 |
| 20260506040041 | 73 | 0 | 0.0 | 0.0 | 0.00 | 0.00 | 0.00 | 56 | 1008.4 |
| 20260506035528 | 73 | 0 | 0.0 | 0.0 | 0.00 | 0.00 | 0.00 | 55 | 1008.2 |
| 20260506035029 | 73 | 0 | 0.0 | 0.0 | 0.00 | 0.00 | 0.00 | 55 | 1008.2 |
| 20260506034552 | 73 | 0 | 0.0 | 0.0 | 0.00 | 0.00 | 0.00 | 55 | 1008.1 |
| 20260506034029 | 74 | 0 | 0.0 | 0.0 | 0.00 | 0.00 | 0.00 | 55 | 1007.9 |
| 20260506033530 | 74 | 0 | 0.0 | 0.0 | 0.00 | 0.00 | 0.00 | 55 | 1007.9 |
| 20260506033047 | 74 | 0 | 0.0 | 0.0 | 0.00 | 0.00 | 0.00 | 55 | 1007.8 |
| 20260506032528 | 74 | 0 | 0.0 | 0.0 | 0.00 | 0.00 | 0.00 | 55 | 1007.8 |
| 20260506032031 | 74 | 0 | 0.0 | 0.0 | 0.00 | 0.00 | 0.00 | 55 | 1007.8 |
| 20260506031540 | 75 | 0 | 0.0 | 0.0 | 0.00 | 0.00 | 0.00 | 55 | 1007.7 |
| 20260506031029 | 75 | 0 | 0.0 | 0.0 | 0.00 | 0.00 | 0.00 | 54 | 1007.8 |
| 20260506030531 | 76 | 0 | 0.0 | 0.0 | 0.00 | 0.00 | 0.00 | 54 | 1007.9 |
| 20260506030057 | 76 | 0 | 0.0 | 0.0 | 0.00 | 0.00 | 0.00 | 54 | 1007.9 |
| 20260506025528 | 76 | 0 | 0.0 | 0.0 | 0.00 | 0.00 | 0.00 | 54 | 1007.7 |
| 20260506025028 | 77 | 0 | 0.0 | 0.0 | 0.00 | 0.00 | 0.00 | 53 | 1007.5 |
| 20260506024602 | 77 | 0 | 0.0 | 0.0 | 0.00 | 0.00 | 0.00 | 54 | 1007.2 |
| 20260506024031 | 77 | 0 | 0.0 | 0.0 | 0.00 | 0.00 | 0.00 | 55 | 1007.0 |
| 20260506023530 | 78 | 0 | 0.0 | 0.0 | 0.00 | 0.00 | 0.00 | 59 | 1006.7 |
| 20260506023044 | 78 | 0 | 0.0 | 0.0 | 0.00 | 0.00 | 0.00 | 63 | 1006.6 |
| 20260506022530 | 78 | 0 | 0.0 | 0.0 | 0.00 | 0.00 | 0.00 | 63 | 1006.5 |
| 20260506022030 | 78 | 0 | 0.0 | 0.0 | 0.00 | 0.00 | 0.00 | 63 | 1006.3 |
| 20260506021551 | 79 | 0 | 0.0 | 0.0 | 0.00 | 0.00 | 0.00 | 62 | 1006.0 |
| 20260506021030 | 79 | 0 | 0.0 | 0.0 | 0.00 | 0.00 | 0.00 | 62 | 1006.0 |
| 20260506020529 | 79 | 0 | 0.0 | 0.0 | 0.00 | 0.00 | 0.00 | 61 | 1005.6 |
| 20260506020041 | 79 | 0 | 0.0 | 0.0 | 0.00 | 0.00 | 0.00 | 61 | 1005.6 |
| 20260506015531 | 79 | 0 | 0.0 | 0.0 | 0.00 | 0.00 | 0.00 | 61 | 1005.5 |
| 20260506015029 | 79 | 0 | 0.0 | 0.0 | 0.00 | 0.00 | 0.00 | 61 | 1005.5 |
| 20260506014547 | 79 | 0 | 0.0 | 0.0 | 0.00 | 0.00 | 0.00 | 61 | 1005.5 |
| 20260506014030 | 80 | 0 | 0.0 | 0.0 | 0.00 | 0.00 | 0.00 | 61 | 1005.5 |
| 20260506013532 | 80 | 0 | 0.0 | 0.0 | 0.00 | 0.00 | 0.00 | 61 | 1005.3 |
| 20260506013048 | 80 | 0 | 0.0 | 0.0 | 0.00 | 0.00 | 0.00 | 61 | 1005.3 |
| 20260506012528 | 80 | 0 | 0.0 | 0.0 | 0.00 | 0.00 | 0.00 | 61 | 1005.3 |
| 20260506012031 | 80 | 0 | 0.0 | 0.0 | 0.00 | 0.00 | 0.00 | 60 | 1005.3 |
| 20260506011610 | 80 | 0 | 0.0 | 0.0 | 0.00 | 0.00 | 0.00 | 60 | 1005.1 |
| 20260506011031 | 81 | 0 | 0.0 | 0.9 | 0.00 | 0.00 | 0.00 | 60 | 1004.8 |
| 20260506010529 | 81 | 0 | 0.0 | 0.9 | 0.00 | 0.00 | 0.00 | 60 | 1004.6 |
| 20260506010040 | 81 | 0 | 0.0 | 0.9 | 0.00 | 0.00 | 0.00 | 59 | 1004.5 |
| 20260506005531 | 81 | 0 | 0.0 | 1.7 | 0.00 | 0.00 | 0.00 | 59 | 1004.5 |
| 20260506005033 | 81 | 0 | 0.0 | 1.7 | 0.00 | 0.00 | 0.00 | 59 | 1004.5 |
| 20260506004544 | 82 | 0 | 0.0 | 1.7 | 0.00 | 0.00 | 0.00 | 59 | 1004.5 |
| 20260506004029 | 82 | 0 | 0.0 | 1.7 | 0.00 | 0.00 | 0.00 | 58 | 1004.5 |
| 20260506003528 | 82 | 0 | 0.0 | 2.6 | 0.00 | 0.00 | 0.00 | 58 | 1004.5 |
| 20260506003046 | 83 | 0 | 0.0 | 4.3 | 0.00 | 0.00 | 0.00 | 57 | 1004.5 |
| 20260506002529 | 83 | 40 | 0.0 | 4.3 | 0.00 | 0.00 | 0.00 | 56 | 1004.6 |
| 20260506002030 | 83 | 40 | 0.9 | 4.3 | 0.00 | 0.00 | 0.00 | 56 | 1004.6 |
| 20260506001545 | 84 | 40 | 0.9 | 3.5 | 0.00 | 0.00 | 0.00 | 57 | 1004.4 |
| 20260506001031 | 84 | 40 | 0.9 | 3.5 | 0.00 | 0.00 | 0.00 | 56 | 1004.3 |
| 20260506000533 | 84 | 40 | 0.0 | 2.6 | 0.00 | 0.00 | 0.00 | 56 | 1004.3 |
| 20260506000053 | 84 | 40 | 0.0 | 2.6 | 0.00 | 0.00 | 0.00 | 56 | 1004.4 |
| 20260505235529 | 84 | 0 | 0.0 | 2.6 | 0.00 | 0.00 | 0.00 | 56 | 1004.4 |
| 20260505235029 | 84 | 0 | 0.0 | 2.6 | 0.00 | 0.00 | 0.00 | 56 | 1004.4 |
| 20260505234542 | 85 | 0 | 0.0 | 2.6 | 0.00 | 0.00 | 0.00 | 55 | 1004.4 |
| 20260505234031 | 85 | 0 | 0.0 | 2.6 | 0.00 | 0.00 | 0.00 | 55 | 1004.4 |
| 20260505233532 | 85 | 0 | 0.0 | 3.5 | 0.00 | 0.00 | 0.00 | 55 | 1004.4 |
| 20260505233039 | 85 | 0 | 0.0 | 3.5 | 0.00 | 0.00 | 0.00 | 54 | 1004.4 |
| 20260505232531 | 85 | 40 | 0.9 | 3.5 | 0.00 | 0.00 | 0.00 | 53 | 1004.2 |
| 20260505232028 | 86 | 40 | 0.9 | 3.5 | 0.00 | 0.00 | 0.00 | 53 | 1004.3 |
| 20260505231545 | 86 | 40 | 0.0 | 3.5 | 0.00 | 0.00 | 0.00 | 52 | 1004.2 |
| 20260505231030 | 86 | 0 | 0.0 | 3.5 | 0.00 | 0.00 | 0.00 | 54 | 1004.3 |
| 20260505230531 | 86 | 0 | 0.0 | 3.5 | 0.00 | 0.00 | 0.00 | 54 | 1004.2 |
| 20260505230044 | 86 | 0 | 0.0 | 2.6 | 0.00 | 0.00 | 0.00 | 54 | 1004.2 |
| 20260505225529 | 86 | 40 | 0.0 | 4.3 | 0.00 | 0.00 | 0.00 | 55 | 1004.2 |
| 20260505225030 | 86 | 40 | 0.0 | 4.3 | 0.00 | 0.00 | 0.00 | 54 | 1004.2 |
| 20260505224541 | 86 | 0 | 0.0 | 4.3 | 0.00 | 0.00 | 0.00 | 54 | 1004.1 |
| 20260505224031 | 86 | 0 | 0.0 | 6.1 | 0.00 | 0.00 | 0.00 | 54 | 1004.0 |
| 20260505223531 | 86 | 40 | 1.7 | 6.1 | 0.00 | 0.00 | 0.00 | 52 | 1004.0 |
| 20260505223040 | 87 | 40 | 1.7 | 6.1 | 0.00 | 0.00 | 0.00 | 52 | 1004.0 |
| 20260505222528 | 87 | 40 | 0.9 | 3.5 | 0.00 | 0.00 | 0.00 | 52 | 1004.0 |
| 20260505222031 | 88 | 40 | 0.0 | 2.6 | 0.00 | 0.00 | 0.00 | 52 | 1004.0 |
| 20260505221557 | 88 | 0 | 0.0 | 2.6 | 0.00 | 0.00 | 0.00 | 53 | 1004.0 |
| 20260505221031 | 88 | 0 | 0.0 | 3.5 | 0.00 | 0.00 | 0.00 | 52 | 1003.9 |
| 20260505220533 | 89 | 40 | 0.0 | 5.2 | 0.00 | 0.00 | 0.00 | 50 | 1004.0 |
| 20260505220056 | 90 | 0 | 0.9 | 5.2 | 0.00 | 0.00 | 0.00 | 49 | 1003.9 |
| 20260505215531 | 90 | 40 | 0.0 | 4.3 | 0.00 | 0.00 | 0.00 | 50 | 1004.0 |
| 20260505215030 | 90 | 0 | 0.0 | 4.3 | 0.00 | 0.00 | 0.00 | 49 | 1004.0 |
| 20260505214552 | 90 | 40 | 0.0 | 3.5 | 0.00 | 0.00 | 0.00 | 46 | 1003.9 |
| 20260505214030 | 90 | 40 | 0.0 | 3.5 | 0.00 | 0.00 | 0.00 | 43 | 1003.8 |
| 20260505213528 | 90 | 39 | 0.0 | 3.5 | 0.00 | 0.00 | 0.00 | 44 | 1003.9 |
| 20260505213041 | 90 | 0 | 0.9 | 3.5 | 0.00 | 0.00 | 0.00 | 43 | 1003.9 |
| 20260505212529 | 91 | 40 | 0.0 | 2.6 | 0.00 | 0.00 | 0.00 | 44 | 1004.0 |
| 20260505212029 | 90 | 0 | 0.0 | 5.2 | 0.00 | 0.00 | 0.00 | 44 | 1004.1 |
| 20260505211542 | 90 | 40 | 0.0 | 5.2 | 0.00 | 0.00 | 0.00 | 44 | 1004.1 |
| 20260505211029 | 90 | 0 | 0.9 | 5.2 | 0.00 | 0.00 | 0.00 | 44 | 1004.2 |
| 20260505210528 | 91 | 39 | 0.0 | 2.6 | 0.00 | 0.00 | 0.00 | 44 | 1004.3 |
| 20260505210051 | 90 | 0 | 0.0 | 3.5 | 0.00 | 0.00 | 0.00 | 45 | 1004.5 |
| 20260505205533 | 90 | 0 | 0.0 | 3.5 | 0.00 | 0.00 | 0.00 | 46 | 1004.3 |
| 20260505205031 | 90 | 0 | 0.9 | 3.5 | 0.00 | 0.00 | 0.00 | 44 | 1004.3 |
| 20260505204555 | 90 | 0 | 0.0 | 3.5 | 0.00 | 0.00 | 0.00 | 45 | 1004.3 |
| 20260505204029 | 90 | 39 | 0.9 | 3.5 | 0.00 | 0.00 | 0.00 | 45 | 1004.6 |
| 20260505203531 | 90 | 0 | 0.9 | 3.5 | 0.00 | 0.00 | 0.00 | 46 | 1004.7 |
| 20260505203043 | 90 | 0 | 0.9 | 4.3 | 0.00 | 0.00 | 0.00 | 45 | 1004.7 |
| 20260505202531 | 90 | 0 | 0.0 | 4.3 | 0.00 | 0.00 | 0.00 | 46 | 1004.8 |
| 20260505202031 | 89 | 39 | 0.9 | 3.5 | 0.00 | 0.00 | 0.00 | 46 | 1004.8 |
| 20260505201546 | 89 | 39 | 0.9 | 3.5 | 0.00 | 0.00 | 0.00 | 46 | 1004.8 |
| 20260505201030 | 89 | 40 | 0.9 | 3.5 | 0.00 | 0.00 | 0.00 | 47 | 1004.8 |
| 20260505200531 | 89 | 0 | 0.0 | 2.6 | 0.00 | 0.00 | 0.00 | 48 | 1004.8 |
| 20260505200040 | 89 | 40 | 0.0 | 3.5 | 0.00 | 0.00 | 0.00 | 47 | 1004.8 |
| 20260505195528 | 89 | 40 | 0.0 | 3.5 | 0.00 | 0.00 | 0.00 | 48 | 1004.8 |
| 20260505195030 | 89 | 40 | 0.0 | 4.3 | 0.00 | 0.00 | 0.00 | 49 | 1004.9 |
| 20260505194556 | 88 | 0 | 0.0 | 4.3 | 0.00 | 0.00 | 0.00 | 47 | 1005.0 |
| 20260505194031 | 88 | 40 | 0.9 | 4.3 | 0.00 | 0.00 | 0.00 | 47 | 1005.0 |
| 20260505193531 | 88 | 0 | 0.9 | 5.2 | 0.00 | 0.00 | 0.00 | 47 | 1005.1 |
| 20260505193047 | 88 | 0 | 0.0 | 5.2 | 0.00 | 0.00 | 0.00 | 48 | 1005.2 |
| 20260505192530 | 88 | 0 | 0.0 | 3.5 | 0.00 | 0.00 | 0.00 | 50 | 1005.2 |
| 20260505192028 | 87 | 0 | 0.9 | 4.3 | 0.00 | 0.00 | 0.00 | 49 | 1005.2 |
| 20260505191547 | 87 | 0 | 0.9 | 4.3 | 0.00 | 0.00 | 0.00 | 49 | 1005.2 |
| 20260505191030 | 87 | 0 | 0.0 | 3.5 | 0.00 | 0.00 | 0.00 | 49 | 1005.2 |
| 20260505190530 | 87 | 0 | 0.0 | 6.1 | 0.00 | 0.00 | 0.00 | 49 | 1005.3 |
| 20260505190042 | 87 | 0 | 0.0 | 6.1 | 0.00 | 0.00 | 0.00 | 50 | 1005.3 |
| 20260505185529 | 87 | 0 | 0.9 | 4.3 | 0.00 | 0.00 | 0.00 | 49 | 1005.5 |
| 20260505185031 | 87 | 0 | 0.9 | 4.3 | 0.00 | 0.00 | 0.00 | 49 | 1005.6 |
| 20260505184552 | 86 | 0 | 0.0 | 4.3 | 0.00 | 0.00 | 0.00 | 51 | 1005.5 |
| 20260505184032 | 86 | 40 | 0.9 | 4.3 | 0.00 | 0.00 | 0.00 | 50 | 1005.5 |
| 20260505183531 | 86 | 40 | 0.9 | 4.3 | 0.00 | 0.00 | 0.00 | 50 | 1005.6 |
| 20260505183053 | 85 | 40 | 0.0 | 4.3 | 0.00 | 0.00 | 0.00 | 52 | 1005.7 |
| 20260505182530 | 85 | 40 | 0.0 | 5.2 | 0.00 | 0.00 | 0.00 | 52 | 1005.7 |
| 20260505182030 | 84 | 0 | 0.9 | 5.2 | 0.00 | 0.00 | 0.00 | 52 | 1005.7 |
| 20260505181545 | 84 | 40 | 0.9 | 5.2 | 0.00 | 0.00 | 0.00 | 53 | 1005.7 |
| 20260505181030 | 84 | 40 | 0.0 | 3.5 | 0.00 | 0.00 | 0.00 | 52 | 1005.7 |
| 20260505180531 | 84 | 0 | 0.0 | 4.3 | 0.00 | 0.00 | 0.00 | 53 | 1005.7 |
| 20260505180046 | 84 | 0 | 0.9 | 4.3 | 0.00 | 0.00 | 0.00 | 52 | 1005.8 |
| 20260505175531 | 84 | 40 | 0.9 | 3.5 | 0.00 | 0.00 | 0.00 | 54 | 1005.9 |
| 20260505175031 | 83 | 0 | 0.0 | 4.3 | 0.00 | 0.00 | 0.00 | 54 | 1005.8 |
| 20260505174542 | 82 | 0 | 0.9 | 4.3 | 0.00 | 0.00 | 0.00 | 55 | 1005.8 |
| 20260505174032 | 82 | 40 | 0.9 | 5.2 | 0.00 | 0.00 | 0.00 | 54 | 1005.6 |
| 20260505173528 | 82 | 40 | 1.7 | 6.1 | 0.00 | 0.00 | 0.00 | 54 | 1005.7 |
| 20260505173047 | 82 | 40 | 0.9 | 6.1 | 0.00 | 0.00 | 0.00 | 54 | 1005.6 |
| 20260505172530 | 82 | 40 | 0.9 | 6.1 | 0.00 | 0.00 | 0.00 | 54 | 1005.6 |
| 20260505172031 | 82 | 40 | 0.9 | 6.1 | 0.00 | 0.00 | 0.00 | 55 | 1005.6 |
| 20260505171548 | 82 | 40 | 0.9 | 6.1 | 0.00 | 0.00 | 0.00 | 54 | 1005.5 |
| 20260505171030 | 81 | 0 | 0.9 | 4.3 | 0.00 | 0.00 | 0.00 | 55 | 1005.4 |
| 20260505170530 | 81 | 40 | 0.9 | 5.2 | 0.00 | 0.00 | 0.00 | 55 | 1005.7 |
| 20260505170046 | 81 | 40 | 0.9 | 6.1 | 0.00 | 0.00 | 0.00 | 55 | 1005.7 |
| 20260505165530 | 81 | 40 | 1.7 | 6.1 | 0.00 | 0.00 | 0.00 | 55 | 1005.7 |
| 20260505165030 | 81 | 40 | 1.7 | 6.1 | 0.00 | 0.00 | 0.00 | 54 | 1005.6 |
| 20260505164556 | 81 | 40 | 0.9 | 5.2 | 0.00 | 0.00 | 0.00 | 55 | 1005.6 |
| 20260505164030 | 81 | 0 | 0.9 | 5.2 | 0.00 | 0.00 | 0.00 | 55 | 1005.6 |
| 20260505163531 | 81 | 40 | 1.7 | 5.2 | 0.00 | 0.00 | 0.00 | 55 | 1005.6 |
| 20260505163040 | 80 | 40 | 1.7 | 6.1 | 0.00 | 0.00 | 0.00 | 54 | 1005.8 |
| 20260505162530 | 80 | 40 | 0.9 | 6.1 | 0.00 | 0.00 | 0.00 | 55 | 1005.9 |
| 20260505162031 | 80 | 40 | 0.9 | 3.5 | 0.00 | 0.00 | 0.00 | 55 | 1005.9 |
| 20260505161550 | 80 | 40 | 0.0 | 3.5 | 0.00 | 0.00 | 0.00 | 55 | 1005.9 |
| 20260505161029 | 80 | 0 | 0.0 | 4.3 | 0.00 | 0.00 | 0.00 | 56 | 1005.8 |
| 20260505160529 | 80 | 40 | 0.9 | 5.2 | 0.00 | 0.00 | 0.00 | 56 | 1005.5 |
| 20260505153055 | 77 | 0 | 0.0 | 4.3 | 0.00 | 0.00 | 0.00 | 57 | 1005.9 |
| 20260505152535 | 77 | 40 | 0.9 | 4.3 | 0.00 | 0.00 | 0.00 | 57 | 1005.8 |
| 20260505152031 | 77 | 40 | 0.9 | 4.3 | 0.00 | 0.00 | 0.00 | 58 | 1005.9 |
| 20260505151544 | 76 | 40 | 0.9 | 4.3 | 0.00 | 0.00 | 0.00 | 58 | 1006.0 |
| 20260505151032 | 76 | 0 | 0.9 | 5.2 | 0.00 | 0.00 | 0.00 | 58 | 1006.0 |
| 20260505150529 | 76 | 0 | 0.9 | 5.2 | 0.00 | 0.00 | 0.00 | 58 | 1006.0 |
| 20260505140532 | 74 | 39 | 0.9 | 5.2 | 0.00 | 0.00 | 0.00 | 60 | 1005.5 |
| 20260505125028 | 70 | 0 | 0.0 | 3.5 | 0.00 | 0.00 | 0.00 | 65 | 1005.3 |
| 20260505124549 | 70 | 0 | 0.0 | 3.5 | 0.00 | 0.00 | 0.00 | 65 | 1005.3 |
| 20260505124029 | 70 | 39 | 0.0 | 2.6 | 0.00 | 0.00 | 0.00 | 65 | 1005.3 |
| 20260505123529 | 70 | 0 | 0.0 | 2.6 | 0.00 | 0.00 | 0.00 | 65 | 1005.2 |
| 20260505123042 | 70 | 0 | 0.0 | 3.5 | 0.00 | 0.00 | 0.00 | 65 | 1005.2 |
| 20260505122530 | 70 | 0 | 0.0 | 3.5 | 0.00 | 0.00 | 0.00 | 65 | 1005.1 |
| 20260505122029 | 70 | 0 | 0.0 | 3.5 | 0.00 | 0.00 | 0.00 | 65 | 1005.1 |
| 20260505121540 | 70 | 0 | 0.0 | 3.5 | 0.00 | 0.00 | 0.00 | 65 | 1005.1 |
| 20260505121029 | 70 | 0 | 0.0 | 1.7 | 0.00 | 0.00 | 0.00 | 65 | 1004.9 |
| 20260505120529 | 70 | 0 | 0.0 | 2.6 | 0.00 | 0.00 | 0.00 | 65 | 1004.8 |
| 20260505120059 | 70 | 39 | 0.0 | 3.5 | 0.00 | 0.00 | 0.00 | 65 | 1004.8 |
| 20260505115528 | 70 | 0 | 0.0 | 3.5 | 0.00 | 0.00 | 0.00 | 65 | 1004.8 |
| 20260505115032 | 70 | 0 | 0.0 | 3.5 | 0.00 | 0.00 | 0.00 | 65 | 1004.8 |
| 20260505114545 | 70 | 0 | 0.0 | 3.5 | 0.00 | 0.00 | 0.00 | 65 | 1004.9 |
| 20260505114029 | 70 | 39 | 0.0 | 3.5 | 0.00 | 0.00 | 0.00 | 65 | 1004.9 |
| 20260505113530 | 70 | 0 | 0.0 | 3.5 | 0.00 | 0.00 | 0.00 | 65 | 1004.7 |
| 20260505113101 | 70 | 39 | 0.0 | 3.5 | 0.00 | 0.00 | 0.00 | 65 | 1004.7 |
| 20260505112529 | 70 | 0 | 0.0 | 2.6 | 0.00 | 0.00 | 0.00 | 65 | 1004.7 |
| 20260505112029 | 70 | 39 | 0.0 | 4.3 | 0.00 | 0.00 | 0.00 | 65 | 1004.7 |
| 20260505111541 | 70 | 0 | 0.0 | 4.3 | 0.00 | 0.00 | 0.00 | 65 | 1004.7 |
| 20260505111029 | 70 | 39 | 0.0 | 3.5 | 0.00 | 0.00 | 0.00 | 65 | 1004.7 |
| 20260505110528 | 70 | 0 | 0.0 | 4.3 | 0.00 | 0.00 | 0.00 | 65 | 1004.7 |
| 20260505102030 | 70 | 0 | 0.0 | 2.6 | 0.00 | 0.00 | 0.00 | 64 | 1004.6 |
| 20260505101543 | 70 | 0 | 0.0 | 2.6 | 0.00 | 0.00 | 0.00 | 64 | 1004.6 |
| 20260505101029 | 70 | 39 | 0.0 | 7.0 | 0.00 | 0.00 | 0.00 | 63 | 1004.7 |
| 20260505100531 | 71 | 0 | 0.0 | 7.0 | 0.00 | 0.00 | 0.00 | 63 | 1004.8 |
| 20260505100042 | 71 | 39 | 0.0 | 6.1 | 0.00 | 0.00 | 0.00 | 63 | 1004.6 |
| 20260505095528 | 71 | 39 | 0.9 | 4.3 | 0.00 | 0.00 | 0.00 | 63 | 1004.6 |
| 20260505095030 | 71 | 39 | 0.9 | 4.3 | 0.00 | 0.00 | 0.00 | 62 | 1004.6 |
| 20260505094540 | 71 | 0 | 0.0 | 7.8 | 0.00 | 0.00 | 0.00 | 62 | 1004.7 |
| 20260505094029 | 71 | 0 | 0.0 | 7.8 | 0.00 | 0.00 | 0.00 | 62 | 1004.8 |
| 20260505093530 | 71 | 39 | 0.0 | 3.5 | 0.00 | 0.00 | 0.00 | 62 | 1004.9 |
| 20260505093043 | 71 | 39 | 0.0 | 3.5 | 0.00 | 0.00 | 0.00 | 62 | 1005.0 |
| 20260505092529 | 71 | 39 | 0.0 | 4.3 | 0.00 | 0.00 | 0.00 | 62 | 1005.0 |
| 20260505092030 | 71 | 0 | 0.9 | 4.3 | 0.00 | 0.00 | 0.00 | 62 | 1005.1 |
| 20260505091546 | 71 | 0 | 0.9 | 4.3 | 0.00 | 0.00 | 0.00 | 63 | 1005.2 |
| 20260505091029 | 71 | 0 | 0.0 | 3.5 | 0.00 | 0.00 | 0.00 | 63 | 1005.2 |
| 20260505090529 | 71 | 39 | 0.9 | 4.3 | 0.00 | 0.00 | 0.00 | 63 | 1005.2 |
| 20260505090045 | 71 | 0 | 0.0 | 4.3 | 0.00 | 0.00 | 0.00 | 63 | 1005.3 |
| 20260505085528 | 71 | 0 | 0.9 | 4.3 | 0.00 | 0.00 | 0.00 | 63 | 1005.1 |
| 20260505085029 | 71 | 39 | 0.0 | 3.5 | 0.00 | 0.00 | 0.00 | 63 | 1005.1 |
| 20260505084547 | 71 | 0 | 0.0 | 3.5 | 0.00 | 0.00 | 0.00 | 63 | 1005.0 |
| 20260505084028 | 71 | 39 | 0.9 | 3.5 | 0.00 | 0.00 | 0.00 | 64 | 1005.1 |
| 20260505083528 | 70 | 39 | 0.0 | 7.8 | 0.00 | 0.00 | 0.00 | 64 | 1005.1 |
| 20260505083053 | 70 | 39 | 0.9 | 7.8 | 0.00 | 0.00 | 0.00 | 64 | 1005.1 |
| 20260505082529 | 70 | 39 | 0.0 | 7.0 | 0.00 | 0.00 | 0.00 | 64 | 1005.1 |
| 20260505082030 | 70 | 39 | 0.0 | 7.0 | 0.00 | 0.00 | 0.00 | 64 | 1005.2 |
| 20260505081551 | 70 | 39 | 0.0 | 7.0 | 0.00 | 0.00 | 0.00 | 64 | 1005.3 |
| 20260505081030 | 70 | 0 | 0.0 | 3.5 | 0.00 | 0.00 | 0.00 | 64 | 1005.3 |
| 20260505080530 | 70 | 0 | 0.9 | 4.3 | 0.00 | 0.00 | 0.00 | 64 | 1005.4 |
| 20260505080039 | 70 | 0 | 0.0 | 4.3 | 0.00 | 0.00 | 0.00 | 63 | 1005.4 |
| 20260505075528 | 70 | 0 | 0.0 | 4.3 | 0.00 | 0.00 | 0.00 | 63 | 1005.5 |
| 20260505075028 | 71 | 0 | 0.9 | 4.3 | 0.00 | 0.00 | 0.00 | 63 | 1005.6 |
| 20260505074545 | 71 | 0 | 0.0 | 4.3 | 0.00 | 0.00 | 0.00 | 63 | 1005.6 |
| 20260505074028 | 71 | 39 | 0.0 | 4.3 | 0.00 | 0.00 | 0.00 | 63 | 1005.6 |
| 20260505073528 | 71 | 39 | 0.9 | 7.0 | 0.00 | 0.00 | 0.00 | 63 | 1005.7 |
| 20260505073043 | 71 | 39 | 0.9 | 7.0 | 0.00 | 0.00 | 0.00 | 63 | 1005.8 |
| 20260505072530 | 71 | 0 | 0.9 | 7.0 | 0.00 | 0.00 | 0.00 | 63 | 1005.9 |
| 20260505072029 | 71 | 39 | 0.9 | 4.3 | 0.00 | 0.00 | 0.00 | 63 | 1005.9 |
| 20260505071541 | 71 | 39 | 0.0 | 4.3 | 0.00 | 0.00 | 0.00 | 63 | 1006.0 |
| 20260505071029 | 71 | 39 | 0.0 | 4.3 | 0.00 | 0.00 | 0.00 | 63 | 1006.1 |